Regional Weather Roundup
Issued by NWS

Home | Current Version | Previous Version | Text Only | Print | Product List | Glossary Off
Versions: 1 2 3 4 5 6 7 8 9 10 11 12 13 14 15 16 17 18 19 20 21 22 23 24 25 26 27

000
ASUS45 KBOI 221810
RWRID
WEATHER ROUNDUP FOR IDAHO
NATIONAL WEATHER SERVICE BOISE ID
1200 PM MDT TUE APR 22 2014

NOTE: "FAIR" INDICATES FEW OR NO CLOUDS BELOW 12000 FEET
WITH NO SIGNIFICANT WEATHER AND/OR OBSTRUCTIONS TO VISIBILITY

IDZ012-014-221900-
SOUTHWEST IDAHO


CITY           SKY/WX    TMP DP  RH WIND       PRES   REMARKS
BOISE          CLOUDY    48  44  86 E8        29.73F
CALDWELL       CLOUDY    50  39  66 E13       29.75S
MOUNTAIN HOME  RAIN      49  49  99 W7        29.78R FOG
$$

IDZ016-017-221900-
SOUTHCENTRAL IDAHO


CITY           SKY/WX    TMP DP  RH WIND       PRES   REMARKS
BURLEY         MOSUNNY   61  34  36 W16G29    29.64F
JEROME         CLOUDY    57  35  43 W31G39    29.68S
TWIN FALLS     CLOUDY    60  34  37 W28       29.69S
$$

IDZ019>023-221900-
SOUTHEAST IDAHO


CITY           SKY/WX    TMP DP  RH WIND       PRES   REMARKS
IDAHO FALLS    PTSUNNY   70  32  24 S26G38    29.60F
POCATELLO      PTSUNNY   70  31  23 S22G29    29.60F
REXBURG        MOSUNNY   68  35  29 S17G32    29.63F
$$

IDZ006-010-011-018-031-032-221900-
CENTRAL IDAHO MOUNTAINS


CITY           SKY/WX    TMP DP  RH WIND       PRES   REMARKS
MCCALL         LGT SNOW  33  31  92 CALM      29.74S FOG
HAILEY         CLOUDY    57  37  47 NW6       29.64F
STANLEY          N/A     35  34  96 CALM      29.73F
SALMON         CLOUDY    55  30  38 CALM      29.60R
CHALLIS        CLOUDY    52  33  48 W16G26    29.62F
$$

IDZ002-004-006-007-026-221900-
NORTHERN IDAHO


CITY           SKY/WX    TMP DP  RH WIND       PRES   REMARKS
LEWISTON       LGT RAIN  48  40  73 CALM      29.75S
LOWELL           N/A     48  45  89 CALM      29.72F
COEUR D`ALENE  CLOUDY    45 N/A N/A S10       29.72R
MULLAN PASS    SNOW      33  33 100 VRB5      29.68S VSB 1/4 WCI  29
$$



USA.gov is the U.S. government's official web portal to all federal, state and local government web resources and services.